Hourly Weather Kozova

Today, 26 October, Monday

Time Temperature Precipitation Wind Pressure Humidity
00:00 +10°C° 0 mm 5 mps 728 mmHg 89%
01:00 +10°C° 0 mm 5 mps 728 mmHg 89%
02:00 +10°C° 0 mm 5 mps 728 mmHg 89%
03:00 +10°C° 0 mm 5 mps 727 mmHg 90%
04:00 +10°C° 0 mm 5 mps 727 mmHg 91%
05:00 +11°C° 0 mm 4 mps 727 mmHg 92%
06:00 +11°C° 0 mm 4 mps 727 mmHg 92%
07:00 +11°C° 0 mm 4 mps 727 mmHg 92%
08:00 +9°C° 0 mm 5 mps 727 mmHg 92%
09:00 +12°C° 0 mm 5 mps 727 mmHg 87%
10:00 +13°C° 0 mm 5 mps 727 mmHg 81%
11:00 +14°C° 0 mm 5 mps 727 mmHg 75%
12:00 +15°C° 0 mm 5 mps 727 mmHg 73%
13:00 +16°C° 0 mm 5 mps 727 mmHg 72%
14:00 +16°C° 0 mm 5 mps 727 mmHg 70%
15:00 +15°C° 0 mm 4 mps 727 mmHg 74%
16:00 +14°C° 0 mm 4 mps 726 mmHg 79%
17:00 +14°C° 0 mm 3 mps 726 mmHg 84%
18:00 +13°C° 0 mm 3 mps 726 mmHg 86%
19:00 +12°C° 0 mm 3 mps 727 mmHg 88%
20:00 +12°C° 0 mm 3 mps 727 mmHg 90%
21:00 +11°C° 0 mm 3 mps 727 mmHg 91%
22:00 +11°C° 0 mm 3 mps 727 mmHg 92%
23:00 +11°C° 0 mm 3 mps 727 mmHg 94%

Tomorrow, 27 October, Tuesday

Time Temperature Precipitation Wind Pressure Humidity
00:00 +12°C° 0 mm 2 mps 727 mmHg 94%
01:00 +10°C° 0 mm 2 mps 727 mmHg 94%
02:00 +10°C° 0 mm 2 mps 727 mmHg 95%
03:00 +10°C° 0 mm 2 mps 727 mmHg 95%
04:00 +10°C° 0 mm 2 mps 727 mmHg 95%
05:00 +9°C° 0 mm 2 mps 727 mmHg 95%
06:00 +9°C° 0 mm 2 mps 727 mmHg 96%
07:00 +10°C° 0 mm 2 mps 727 mmHg 96%
08:00 +10°C° 0 mm 3 mps 728 mmHg 97%
09:00 +11°C° 0 mm 3 mps 728 mmHg 91%
10:00 +13°C° 0 mm 3 mps 728 mmHg 86%
11:00 +14°C° 0 mm 4 mps 728 mmHg 80%
12:00 +15°C° 0 mm 4 mps 728 mmHg 78%
13:00 +17°C° 0 mm 4 mps 728 mmHg 75%
14:00 +18°C° 0 mm 4 mps 727 mmHg 72%
15:00 +17°C° 0 mm 4 mps 727 mmHg 76%
16:00 +14°C° 0 mm 3 mps 727 mmHg 81%
17:00 +13°C° 0 mm 3 mps 727 mmHg 85%
18:00 +13°C° 0 mm 3 mps 727 mmHg 88%
19:00 +12°C° 0 mm 4 mps 727 mmHg 90%
20:00 +12°C° 0 mm 4 mps 727 mmHg 93%
21:00 +12°C° 0 mm 4 mps 727 mmHg 93%
22:00 +11°C° 0 mm 4 mps 727 mmHg 94%
23:00 +11°C° 0 mm 4 mps 727 mmHg 94%

Day after tomorrow, 28 October, Wednesday

Time Temperature Precipitation Wind Pressure Humidity
00:00 +11°C° 0 mm 3 mps 727 mmHg 94%
01:00 +11°C° 0 mm 3 mps 727 mmHg 95%
02:00 +10°C° 0 mm 3 mps 727 mmHg 95%
03:00 +10°C° 0 mm 3 mps 727 mmHg 96%
04:00 +10°C° 0 mm 2 mps 727 mmHg 96%
05:00 +10°C° 0 mm 2 mps 728 mmHg 96%
06:00 +10°C° 0 mm 2 mps 728 mmHg 97%
07:00 +10°C° 0 mm 2 mps 728 mmHg 97%
08:00 +10°C° 0 mm 2 mps 728 mmHg 98%
09:00 +11°C° 0 mm 3 mps 728 mmHg 94%
10:00 +12°C° 0 mm 3 mps 728 mmHg 89%
11:00 +13°C° 0 mm 3 mps 729 mmHg 85%
12:00 +14°C° 0 mm 3 mps 728 mmHg 82%
13:00 +14°C° 0 mm 4 mps 728 mmHg 79%
14:00 +15°C° 0 mm 4 mps 728 mmHg 77%
15:00 +14°C° 0 mm 3 mps 728 mmHg 80%
16:00 +14°C° 0 mm 3 mps 728 mmHg 83%
17:00 +13°C° 0 mm 3 mps 728 mmHg 86%
18:00 +12°C° 0 mm 3 mps 728 mmHg 88%
19:00 +12°C° 0 mm 3 mps 728 mmHg 91%
20:00 +12°C° 0 mm 2 mps 729 mmHg 94%
21:00 +12°C° 0 mm 2 mps 729 mmHg 95%
22:00 +10°C° 0 mm 2 mps 729 mmHg 95%
23:00 +10°C° 0 mm 2 mps 729 mmHg 96%

29 October, Thursday

Time Temperature Precipitation Wind Pressure Humidity
00:00 +10°C° 0 mm 2 mps 729 mmHg 96%
01:00 +10°C° 0 mm 2 mps 728 mmHg 96%
02:00 +9°C° 0 mm 2 mps 728 mmHg 97%
03:00 +9°C° 0 mm 2 mps 728 mmHg 97%
04:00 +9°C° 0 mm 2 mps 728 mmHg 97%
05:00 +9°C° 0 mm 2 mps 729 mmHg 97%
06:00 +10°C° 0 mm 1 mps 729 mmHg 97%
07:00 +11°C° 0 mm 1 mps 729 mmHg 97%
08:00 +11°C° 0 mm 1 mps 729 mmHg 96%
09:00 +11°C° 0 mm 1 mps 729 mmHg 94%
10:00 +12°C° 0 mm 1 mps 729 mmHg 92%
11:00 +12°C° 0 mm 1 mps 729 mmHg 90%
12:00 +13°C° 0 mm 1 mps 729 mmHg 86%
13:00 +13°C° 0 mm 1 mps 729 mmHg 82%
14:00 +14°C° 0 mm 1 mps 729 mmHg 78%
15:00 +13°C° 0 mm 1 mps 730 mmHg 81%
16:00 +13°C° 0 mm 1 mps 730 mmHg 83%
17:00 +11°C° 0 mm 0 mps 730 mmHg 86%
18:00 +12°C° 0 mm 1 mps 730 mmHg 87%
19:00 +12°C° 0 mm 1 mps 731 mmHg 88%
20:00 +11°C° 0 mm 1 mps 731 mmHg 90%
21:00 +11°C° 0 mm 1 mps 731 mmHg 90%
22:00 +10°C° 0 mm 2 mps 732 mmHg 91%
23:00 +10°C° 0 mm 2 mps 732 mmHg 92%

30 October, Friday

Time Temperature Precipitation Wind Pressure Humidity
00:00 +9°C° 0 mm 2 mps 732 mmHg 92%
01:00 +9°C° 0 mm 2 mps 732 mmHg 92%
02:00 +9°C° 0 mm 2 mps 732 mmHg 91%
03:00 +9°C° 0 mm 2 mps 733 mmHg 92%
04:00 +8°C° 0 mm 2 mps 733 mmHg 92%
05:00 +8°C° 0 mm 2 mps 733 mmHg 92%
06:00 +8°C° 0 mm 2 mps 733 mmHg 91%
07:00 +9°C° 0 mm 1 mps 733 mmHg 90%
08:00 +9°C° 0 mm 1 mps 734 mmHg 89%
09:00 +11°C° 0 mm 1 mps 734 mmHg 83%
10:00 +12°C° 0 mm 1 mps 734 mmHg 77%
11:00 +13°C° 0 mm 1 mps 734 mmHg 71%
12:00 +14°C° 0 mm 2 mps 734 mmHg 69%
13:00 +15°C° 0 mm 2 mps 734 mmHg 66%
14:00 +14°C° 0 mm 3 mps 734 mmHg 64%
15:00 +14°C° 0 mm 2 mps 734 mmHg 68%
16:00 +13°C° 0 mm 1 mps 734 mmHg 72%
17:00 +12°C° 0 mm 1 mps 734 mmHg 76%
18:00 +12°C° 0 mm 1 mps 734 mmHg 78%
19:00 +12°C° 0 mm 1 mps 734 mmHg 80%
20:00 +10°C° 0 mm 2 mps 734 mmHg 82%
21:00 +10°C° 0 mm 2 mps 734 mmHg 83%
22:00 +10°C° 0 mm 2 mps 735 mmHg 85%
23:00 +9°C° 0 mm 2 mps 735 mmHg 86%

31 October, Saturday

Time Temperature Precipitation Wind Pressure Humidity
00:00 +9°C° 0 mm 2 mps 735 mmHg 86%
01:00 +9°C° 0 mm 2 mps 735 mmHg 86%
02:00 +9°C° 0 mm 2 mps 734 mmHg 86%
03:00 +9°C° 0 mm 2 mps 734 mmHg 84%
04:00 +9°C° 0 mm 2 mps 734 mmHg 83%
05:00 +9°C° 0 mm 1 mps 734 mmHg 82%
06:00 +9°C° 0 mm 1 mps 734 mmHg 81%
07:00 +10°C° 0 mm 1 mps 734 mmHg 80%
08:00 +9°C° 0 mm 2 mps 734 mmHg 79%
Show more